{"data":{"norad_id":58713,"intl_designator":"2024-002J","name":"STARLINK-30973","alt_names":[],"object_type":"PAYLOAD","status":"ACTIVE","operator":null,"country":"US","launch_date":"2024-01-03","launch_site_code":"AFWTR","launch_vehicle":null,"mission":null,"orbit_class":"UNKNOWN","rcs_meters":null,"size_class":null,"mass_kg":null,"dimensions":null,"purposes":["comms"],"wikipedia_slug":null,"has_3d_model":false,"image_url":null,"decayed_at":null,"tle_current":{"epoch":"2026-09-20T13:46:07.545216Z","epoch_age_seconds":143438,"freshness":"FRESH","line1":"1 58713U 24002J   26263.57369844  .00001140  00000+0  44871-4 0  9990","line2":"2 58713  53.1601  43.2551 0001228  99.6982 260.4159 15.34390793151871","mean_motion":15.34390793,"eccentricity":0.0001228,"inclination_deg":53.1601,"raan_deg":43.2551,"arg_perigee_deg":99.6982,"mean_anomaly_deg":260.4159,"bstar":4.4871e-5,"rev_number":15187,"period_min":93.84832120796,"perigee_km":461.89054694627,"apogee_km":463.57066403018,"semimajor_km":6840.8676054882,"source":"CELESTRAK","updated_at":"2026-09-21T09:00:33.948547Z"}}}